Regional Weather Roundup
Issued by NWS Goodland, KS

Home | Current Version | Previous Version | Text Only | Print | Product List | Glossary On
Versions: 1 2 3 4 5 6 7 8 9 10 11 12 13 14 15 16 17 18 19 20 21 22 23 24 25 26 27 28 29 30 31 32 33 34 35 36 37 38 39 40 41 42 43 44 45 46 47 48 49 50
000
ASUS43 KGLD 101608
RWRGLD

GOODLAND FORECAST AREA HOURLY WEATHER ROUNDUP
NATIONAL WEATHER SERVICE GOODLAND KS
900 AM MST WED FEB 10 2016

...OFFICIAL OBSERVATIONS...

CITY           SKY/WX    TMP DP  RH WIND       PRES   REMARKS
GOODLAND KS    SUNNY     46  22  38 W15       30.07S
HILL CITY KS   SUNNY     45  27  49 W14       30.01R
IMPERIAL NEB   SUNNY     40  25  55 W16       30.01S
MCCOOK NEB     SUNNY     38  26  62 W8        29.99S
AKRON CO       CLOUDY    40  21  46 W21       30.09R
BURLINGTON CO  SUNNY     42  23  46 W14       30.10R
LIMON CO       CLOUDY    36  19  50 W12       30.18R
$$

...UNOFFICIAL OBSERVATIONS...

CITY           SKY/WX    TMP DP  RH WIND       PRES   REMARKS
COLBY KS       SUNNY     41  30  65 W15       30.05S
GOVE KS          N/A     41  32  70 MISG        N/A
LENORA KS        N/A     45  32  60 MISG        N/A
NORTON KS      SUNNY     39  25  56 W13       29.97
SHARON SPRINGS   N/A     44  29  54 W7          N/A
KIT CARSON CO    N/A     37  29  72 MISG        N/A
YUMA CO          N/A     42  26  53 W12         N/A
$$



USA.gov is the U.S. government's official web portal to all federal, state and local government web resources and services.